Regional Weather Roundup
Issued by NWS

Home | Current Version | Previous Version | Text Only | Print | Product List | Glossary On
Versions: 1 2 3 4 5 6 7 8 9 10 11 12 13 14 15 16 17 18 19 20 21 22 23 24 25 26 27 28 29
000
ASUS45 KREV 251810
RWRNV
NEVADA REGIONAL WEATHER ROUNDUP
NATIONAL WEATHER SERVICE RENO NV
1100 AM PDT SAT OCT 25 2014

NOTE: "FAIR" INDICATES FEW OR NO CLOUDS BELOW 12,000 FEET WITH NO
SIGNIFICANT WEATHER AND/OR OBSTRUCTIONS TO VISIBILITY.

NVZ001-003-004-251900-
WESTERN NEVADA

CITY           SKY/WX    TMP DP  RH WIND       PRES   REMARKS
RENO           MOSUNNY   66  27  23 S35G43    29.94R
6HR MIN TEMP:  59; 6HR MAX TEMP:  66;

CARSON CITY    FAIR      64  23  20 SW23G43   29.95R
MINDEN         FAIR      64  25  22 S31G39    30.01
SLIDE MTN        N/A     36  25  64 SW52        N/A
FALLON         MOSUNNY   72  23  16 W23G30    29.91R
6HR MIN TEMP:  54; 6HR MAX TEMP:  75;

LOVELOCK       MOSUNNY   68  26  20 SW21      29.92R
6HR MIN TEMP:  28; 6HR MAX TEMP:  69;

HAWTHORNE      SUNNY     75  14   9 S24G36    29.95F
$$

NVZ002-CAZ072-073-251900-
NORTHERN AND CENTRAL SIERRA

CITY           SKY/WX    TMP DP  RH WIND       PRES   REMARKS
S. LAKE TAHOE  MOSUNNY   56  24  29 S26G46    30.03F
6HR MIN TEMP:  49; 6HR MAX TEMP:  56;

TRUCKEE        PTSUNNY   52  34  50 S25G36    30.03R
SQUAW VLY 8000 NOT AVBL
SUSANVILLE     LGT RAIN  46  43  87 W10G20    30.00R
BLUE CANYON    RAIN      43  40  89 S13G26    30.10R VSB 1/2
MAMMOTH LAKES  FAIR      59   9  13 SW21G39   30.13F
BRIDGEPORT     FAIR      56  15  20 SW20G38   30.07R
$$

NVZ030-031-036-251900-
NORTHERN NEVADA

CITY           SKY/WX    TMP DP  RH WIND       PRES   REMARKS
ELKO           MOSUNNY   71  32  23 S18G33    29.97S
6HR MIN TEMP:  51; 6HR MAX TEMP:  71;

WINNEMUCCA     CLOUDY    69  27  20 S13       29.89S
6HR MIN TEMP:  42; 6HR MAX TEMP:  69;

WENDOVER       SUNNY     59  34  38 NE8       30.02F
$$

NVZ035-037-251900-
CENTRAL NEVADA

CITY           SKY/WX    TMP DP  RH WIND       PRES   REMARKS
ELY            SUNNY     65  35  33 S28G40    30.12F
6HR MIN TEMP:  42; 6HR MAX TEMP:  65;

EUREKA           N/A     67  30  25 S28G37    30.06F
6HR MIN TEMP:  51; 6HR MAX TEMP:  68;

$$

NVZ013-014-251900-
SOUTH CENTRAL NEVADA

CITY           SKY/WX    TMP DP  RH WIND       PRES   REMARKS
TONOPAH        SUNNY     67  31  26 S29G39    30.09F
6HR MIN TEMP:  50; 6HR MAX TEMP:  67;

$$

NVZ017-020-022-251900-
SOUTHERN NEVADA

CITY           SKY/WX    TMP DP  RH WIND       PRES   REMARKS
LAS VEGAS      MOSUNNY   81  40  23 S17G25    30.02R
6HR MIN TEMP:  63; 6HR MAX TEMP:  81;

N. LAS VEGAS   SUNNY     80  40  23 SE12      30.04F
6HR MIN TEMP:  60; 6HR MAX TEMP:  80;

NELLIS AFB     SUNNY     82  42  24 S16       30.03F
6HR MIN TEMP:  58; 6HR MAX TEMP:  82;

HENDERSON      SUNNY     80  41  25 SW18G24   30.08S
6HR MIN TEMP:  61; 6HR MAX TEMP:  80;

MERCURY        SUNNY     76  38  25 S15G26    30.08F
6HR MIN TEMP:  55; 6HR MAX TEMP:  76;

$$



USA.gov is the U.S. government's official web portal to all federal, state and local government web resources and services.